Location: Saint Ives
(52.3000°N, 0.0667°W)
Time: 15:36:58
(UTC+00:00)

Daily predictions for brighter satellites

Satellite Brightness Start Highest point End
(mag) Time Altitude Azimuth Time Altitude Azimuth Time Altitude Azimuth
Cosmos 1624 Rocket 4.0 20:07:38 10° SSW 20:12:47 78° ESE 20:18:00 10° NNE
Gbstr 26 Del rocket 3.4 20:08:25 10° W 20:13:50 71° SSW 20:18:14 10° ESE
Terra 1.9 20:10:01 10° SSE 20:14:43 86° WSW 20:19:27 10° NNW
Cosmos 2360 Rocket 4.4 20:11:21 10° NNW 20:15:00 17° NNE 20:18:40 10° ENE
Sich 1 Rocket 3.9 20:12:56 10° SSE 20:17:05 44° E 20:21:15 10° NNE
Cosmos 1900 4.4 20:12:07 10° SW 20:17:05 88° SE 20:22:03 10° NE
SJ 16-02 3.7 20:16:02 10° NW 20:19:11 20° W 20:22:18 10° SW
USA 229 DEB 4.4 20:17:32 10° NW 20:24:50 62° SW 20:32:55 10° SSE
USA 229 4.4 20:17:35 10° NW 20:24:54 63° SW 20:33:00 10° SSE
MetOp-B 4.4 20:20:01 10° S 20:25:21 74° WSW 20:30:44 10° NNW
Cosmos 1743 2.9 20:22:51 10° N 20:25:40 34° ENE 20:28:27 10° SE
CZ-2C R/B 4.3 20:24:32 10° E 20:25:50 13° ENE 20:27:08 10° NNE
SKYMED 3 4.3 20:25:48 10° NNE 20:29:44 69° ESE 20:33:39 10° S
Cosmos 44 Rocket 4.1 20:26:52 10° S 20:31:21 33° ESE 20:35:57 10° NE
ISS -2.0 20:30:05 10° S 20:31:53 14° SE 20:33:42 10° ESE
Cosmos 2219 Rocket 4.4 20:29:03 10° NNW 20:32:28 16° NNE 20:35:53 10° ENE
Cosmos 1459 Rocket 4.0 20:26:51 10° S 20:33:02 69° E 20:39:10 10° NNE
SL-24 R/B 4.5 20:31:07 10° N 20:35:20 69° WNW 20:39:40 10° SSW
Cosmos 2100 Rocket 4.0 20:30:23 10° S 20:36:35 79° E 20:42:55 10° NNE
Ariane Rocket 3.8 20:32:29 10° SE 20:37:07 38° ENE 20:41:47 10° N
ATLAS 2AS CENTAUR R/B 2.9 20:32:48 10° SW 20:39:46 83° NW 20:46:38 10° NE
ADEOS 4.0 20:34:45 10° S 20:39:55 63° WSW 20:45:07 10° NNW
Cosmos 2369 4.2 20:35:29 10° NNW 20:41:04 51° NE 20:46:24 11° SE
BREEZE-M DEB (TANK) 4.0 20:38:47 10° W 20:41:29 34° SSW 20:47:10 11° SE
SL-4 R/B 3.4 20:38:25 10° W 20:41:32 24° SW 20:44:41 10° SSE
Spot 2 Rocket 3.5 20:37:57 10° SSE 20:42:58 87° WSW 20:48:02 10° NNW
Cosmos 2322 Rocket 4.0 20:38:41 10° NNW 20:43:02 22° NE 20:47:22 10° E
Cosmos 2151 Rocket 4.1 20:40:37 10° SSW 20:44:55 63° WNW 20:49:18 10° N
MOS 1-B 4.4 20:40:49 10° SSE 20:46:38 88° WSW 20:52:29 10° NNW
Cosmos 2082 Rocket 3.1 20:42:20 10° SSE 20:47:08 28° ESE 20:51:55 10° NE
Okean 2 Rocket 3.3 20:42:49 10° SSW 20:47:18 78° W 20:51:49 10° N
USA 305 2.6 20:43:24 10° WNW 20:47:31 83° NNE 20:51:08 11° ESE
Cosmos 2151 4.5 20:46:45 10° NNE 20:50:02 22° ENE 20:52:53 12° ESE
Cosmos 1626 Rocket 4.4 20:52:56 10° N 20:56:55 34° ENE 21:00:04 15° SE
Cosmos 1607 4.5 20:52:21 10° S 20:57:51 36° ESE 21:03:27 10° NE
Cosmos 2233 Rocket 4.2 20:52:12 10° SSE 20:58:11 53° E 21:04:10 10° NNE
Cosmos 2228 3.3 20:55:36 11° SSE 20:59:22 43° E 21:03:17 10° NNE
USA 186 1.9 20:58:27 11° S 21:00:56 52° W 21:03:37 10° NNW
Timation 1 Rocket 4.3 20:55:16 10° SSW 21:01:14 74° ESE 21:07:15 10° NE
Helios 1A Rocket 4.2 20:58:25 10° N 21:01:17 31° WNW 21:04:07 10° SW
Okean O Rocket 2.0 20:58:00 10° S 21:02:15 60° WSW 21:06:32 10° NNW
Tsikada Rocket 4.0 20:56:59 10° N 21:03:12 71° ENE 21:08:51 12° SSE
Cosmos 1697 Rocket 4.0 21:00:37 10° NW 21:05:41 35° WSW 21:10:43 10° S
CZ-4C R/B 1.7 21:04:12 10° SSW 21:08:23 61° SE 21:13:47 10° NE
Cosmos 1725 Rocket 4.0 21:02:57 10° S 21:09:14 85° E 21:15:31 10° N
Cosmos 1452 Rocket 3.5 21:04:25 10° SSW 21:09:37 70° ESE 21:14:51 10° NNE
SL-16 R/B 3.1 21:04:53 10° NNW 21:10:15 41° NE 21:14:58 13° ESE
COSMOS 2406 4.5 21:07:29 15° SE 21:10:23 22° E 21:14:39 10° NE
Cosmos 1867 4.4 21:07:29 10° WSW 21:12:51 57° NW 21:18:15 10° NE
ATLAS 3B R/B 3.7 21:06:51 10° NW 21:14:09 46° WSW 21:20:47 11° S
Okean-O 3.4 21:10:59 10° S 21:15:12 47° W 21:19:27 10° NNW
Cosmos 1331 Rocket 4.2 21:13:36 10° SSW 21:18:51 76° WNW 21:24:06 10° NNE
Cosmos 1892 Rocket 4.1 21:15:02 10° NNW 21:19:17 55° W 21:23:27 10° S
CZ-4B R/B 3.3 21:19:07 16° SSE 21:22:55 90° WSW 21:27:44 10° NNW
Cosmos 2333 Rocket 3.0 21:17:44 10° NNW 21:23:12 44° NE 21:27:39 15° ESE
USA 245 4.5 21:18:48 12° S 21:24:16 75° WSW 21:30:06 10° NNW
Cosmos 1455 Rocket 3.4 21:21:18 10° SSW 21:25:42 69° WNW 21:30:06 10° N
Cosmos 1302 Rocket 4.0 21:22:14 10° S 21:27:19 62° ESE 21:32:27 10° NNE
Cosmos 2016 Rocket 4.1 21:22:03 10° SSW 21:28:20 79° W 21:34:35 10° N
SL-08 R/B 4.4 21:24:13 10° N 21:28:53 47° WNW 21:33:28 10° SW
Cosmos 1980 Rocket 3.0 21:28:33 10° NW 21:33:58 46° WSW 21:38:33 14° S
CZ-4B R/B 3.0 21:33:11 18° S 21:35:28 50° W 21:38:47 10° NNW
Cosmos 2061 Rocket 4.0 21:29:53 10° S 21:36:06 80° E 21:42:24 10° NNE
Cosmos 1782 2.9 21:33:00 10° SSW 21:36:28 61° WNW 21:39:59 10° N
Cosmos 1544 Rocket 3.8 21:35:33 22° SSE 21:38:04 49° E 21:42:15 10° NNE
Cosmos 724 4.2 21:32:21 10° SSW 21:38:21 72° SE 21:44:15 10° NE
SPOT 3 Rocket 3.9 21:34:29 14° S 21:38:49 60° WSW 21:43:56 10° NNW
NOSS 3-3 (A) 4.1 21:34:28 10° S 21:39:19 41° ESE 21:45:04 10° NE
Cosmos 1933 3.7 21:44:20 28° SE 21:45:45 40° E 21:49:21 10° NNE
Cosmos 2084 Rocket 3.6 21:44:05 10° NW 21:48:14 61° SW 21:50:19 28° SSE
Cosmos 1758 Rocket 3.5 21:46:44 10° NNW 21:51:08 84° W 21:53:42 24° S
Terra 4.4 21:50:43 10° WSW 21:52:59 13° W 21:55:15 10° WNW
Helios 1B rocket 3.4 21:51:52 22° ESE 21:53:11 28° ENE 21:56:14 10° N
CZ-2C R/B 2.8 21:55:17 28° SSW 21:56:18 41° W 21:58:59 10° NNW
Cosmos 1464 Rocket 4.4 21:53:23 23° SSE 21:56:49 44° E 22:02:37 10° NNE
Gbstr 26 Del rocket 4.2 21:55:33 10° W 21:59:34 26° SW 22:00:52 23° S
Cosmos 2360 Rocket 2.8 21:54:55 10° NNW 22:00:26 48° NE 22:04:14 19° ESE
NOSS 3-3 (C) 3.8 22:02:52 15° SSW 22:07:08 52° SE 22:13:15 10° NE
Cosmos 1825 Rocket 4.1 22:03:15 10° N 22:07:26 46° ENE 22:09:11 29° SE
ISS -3.6 22:04:53 10° SW 22:08:06 47° SSE 22:08:15 46° SSE
ALOS 2 4.3 22:06:32 16° E 22:08:48 24° ENE 22:12:17 10° N
Geosat 4.0 22:03:53 10° NE 22:08:53 63° ESE 22:12:23 19° SSW
ARIANE 5 R/B 4.0 22:07:11 19° ESE 22:09:23 28° ENE 22:13:10 10° N
Cosmos 44 Rocket 4.0 22:07:30 10° WSW 22:12:34 59° NW 22:17:43 10° NE
USA 305 3.1 22:09:00 10° WNW 22:12:42 36° SW 22:13:09 34° SSW
BREEZE-M R/B 4.3 22:05:37 10° W 22:15:11 81° S 22:20:50 10° E
Ariane Rocket 4.1 22:12:25 16° SSW 22:16:00 38° W 22:20:44 10° NNW
Cosmos 1602 Rocket 3.5 22:12:29 10° NNW 22:16:48 79° W 22:18:42 33° S
Cosmos 2219 Rocket 3.0 22:12:33 10° NNW 22:17:57 43° NE 22:21:47 18° ESE
DEBRIS 4.0 22:14:43 10° WSW 22:18:29 70° S 22:31:55 10° E
NOSS 3-4 (A) 3.8 22:14:01 10° NW 22:20:30 78° NE 22:26:01 20° SE
NOSS 3-4 (C) 3.8 22:14:36 10° NW 22:21:08 77° NE 22:26:40 20° SE
Cosmos 1437 Rocket 2.4 22:21:47 38° SSW 22:23:03 82° WNW 22:26:38 10° NNE
Cosmos 1461 4.0 22:26:32 24° E 22:26:32 24° E 22:28:47 10° ENE
Cosmos 2151 3.7 22:23:04 10° NNW 22:27:01 44° W 22:28:56 26° SSW
Cosmos 1428 Rocket 4.5 22:21:41 10° N 22:27:59 77° ENE 22:31:20 29° SSE
Cosmos 2322 Rocket 2.3 22:22:21 10° NNW 22:28:03 74° ENE 22:31:03 29° SE
Cosmos 2034 Rocket 4.3 22:27:37 28° SSE 22:30:48 53° E 22:36:57 10° NNE
Cosmos 2082 Rocket 2.6 22:25:09 10° SW 22:30:49 63° NW 22:36:31 10° NNE
ATLAS 2AS CENTAUR R/B 4.2 22:25:10 10° W 22:31:31 38° NNW 22:37:48 10° NE
GRACE-FO 1 4.3 22:30:57 51° S 22:31:45 90° SSE 22:35:16 10° N
GRACE-FO 2 4.3 22:31:25 51° S 22:32:13 89° W 22:35:44 10° N
Cosmos 220 Rocket 4.1 22:32:36 42° SE 22:33:20 48° ESE 22:37:17 10° NE
Meteor 1-5 Rocket 4.3 22:31:28 10° NNW 22:37:07 80° W 22:40:03 31° S
Cosmos 1536 4.0 22:34:03 10° N 22:37:14 27° ENE 22:38:06 25° E
Cosmos 1707 4.1 22:38:21 17° ENE 22:38:21 17° ENE 22:39:41 10° NE
USA 234 3.6 22:33:13 10° ENE 22:39:22 42° SE 22:42:49 24° S
COSMOS 2428 4.3 22:36:17 10° NNW 22:41:13 29° NE 22:46:07 10° E
Cosmos 1607 4.3 22:38:39 10° SW 22:44:47 65° NW 22:51:05 10° NE
Okean 1-7 Rocket 3.7 22:41:06 10° NNW 22:45:31 67° W 22:47:08 37° SSW
IKONOS-2 4.4 22:42:18 10° NNE 22:46:27 80° WNW 22:48:04 36° SSW
Cosmos 1503 Rocket 3.9 22:41:36 10° NNW 22:46:51 81° ENE 22:49:02 36° SSE
Cosmos 1763 Rocket 4.3 22:45:39 31° SE 22:46:57 36° ESE 22:51:44 10° NE
Cosmos 1777 Rocket 3.9 22:41:51 10° NNW 22:47:08 82° WSW 22:49:16 37° SSE
Cosmos 2278 3.8 22:41:27 10° NW 22:47:08 66° WSW 22:49:38 34° S
Helios 1A 2.8 22:43:29 10° NNE 22:47:26 82° WNW 22:48:44 41° SSW
Cosmos-2242 3.7 22:47:28 34° ESE 22:48:08 36° E 22:51:56 10° NNE
Cosmos 909 Rocket 4.2 22:43:05 10° SW 22:49:22 74° NW 22:56:00 10° NE
Cosmos 990 Rocket 4.2 22:45:03 10° NNW 22:50:11 64° ENE 22:52:30 32° SE
Cosmos 1805 3.6 22:47:24 10° NNW 22:50:31 40° W 22:51:00 37° WSW
COSMOS 2406 3.3 22:49:26 17° SW 22:54:02 80° WNW 22:59:50 10° NNE
Cosmos 1606 Rocket 3.5 22:52:45 40° SSW 22:54:17 85° W 22:58:38 10° N
SL-16 R/B 2.7 22:49:02 10° NW 22:54:27 47° WSW 22:56:47 30° SSW
USA 290 3.6 22:56:48 27° ENE 22:56:48 27° ENE 22:58:50 10° NE
CZ-4C R/B 3.5 22:52:26 10° W 22:56:54 40° NNW 23:02:39 10° NE
Cosmos 1354 Rocket 4.1 22:51:48 10° NNW 22:57:04 71° ENE 22:59:19 34° SE
Cosmos 1486 Rocket 4.2 22:53:41 10° NNW 22:58:51 60° WSW 23:00:50 36° S
Nadezhda 4 Rocket 4.2 22:53:39 10° NNW 22:59:40 60° W 23:02:51 28° SSW
Cosmos 1634 Rocket 4.4 22:57:50 31° SSE 23:00:25 50° E 23:06:22 10° NNE
CSL-04 DEB 4.2 23:00:26 51° SW 23:00:56 58° WSW 23:04:31 10° NNW
Cosmos 1766 3.0 22:58:01 10° N 23:01:13 56° ENE 23:01:17 55° E
Cosmos 1470 3.9 23:01:01 10° NNE 23:03:48 24° ENE 23:04:12 23° E
Cosmos 2098 Rocket 3.8 23:02:09 25° SW 23:04:55 55° WNW 23:09:25 10° N
SeaSat 1 3.5 23:03:53 17° ESE 23:07:11 40° NE 23:11:44 10° NNW
Cosmos 1726 Rocket 3.3 23:06:20 49° SSW 23:07:23 84° WNW 23:11:27 10° N
Cosmos 2333 Rocket 2.9 23:02:09 10° NW 23:07:30 43° WSW 23:09:39 30° SSW
Cosmos 1076 Rocket 3.7 23:06:18 10° NNW 23:10:31 60° W 23:11:38 43° SSW
Cosmos 2221 4.1 23:09:57 20° E 23:10:34 21° E 23:13:43 10° NE
Meteor 2-2 Rocket 4.4 23:10:21 36° SSE 23:12:28 59° E 23:18:06 10° NNE
Cosmos 1842 4.3 23:13:51 25° ENE 23:13:51 25° ENE 23:16:07 10° NNE
BREEZE-M DEB (TANK) 3.6 23:08:18 10° W 23:16:49 59° S 23:21:40 10° ESE
CZ-2C R/B 3.5 23:16:22 24° ESE 23:19:06 42° ENE 23:24:00 10° N
Cosmos 1833 4.4 23:17:41 38° SSE 23:19:28 53° ESE 23:24:57 10° NE
Cosmos 2026 Rocket 4.2 23:18:00 10° NNW 23:24:19 68° W 23:27:17 33° SSW
Okean 1 3.8 23:23:58 38° WSW 23:24:43 45° WNW 23:28:11 10° N
Spot 4 3.9 23:23:21 44° S 23:24:48 70° WSW 23:29:36 10° NNW
KORONAS-FOTON 3.9 23:25:14 50° E 23:25:14 50° E 23:28:25 10° NNE
Helios 1B rocket 3.4 23:25:48 26° WSW 23:26:09 27° W 23:29:11 10° NW
SAR-Lupe-2 3.2 23:26:37 86° SSW 23:26:40 88° WSW 23:30:01 10° NNW
Cosmos 1975 3.5 23:24:13 10° N 23:27:40 37° ENE 23:28:17 34° E
Aureole 1 Rocket 3.7 23:24:00 10° NNW 23:29:12 81° ENE 23:32:03 34° SSE
NOSS 3-3 (A) 4.5 23:24:36 10° WSW 23:29:58 56° NNW 23:36:32 10° NE
Cosmos 2322 4.2 23:26:10 10° NNW 23:31:48 56° NE 23:35:17 23° ESE
Cosmos 44 3.6 23:29:48 10° NW 23:35:15 74° NE 23:38:07 28° SE
Cosmos 2297 Rocket 4.3 23:33:58 11° ESE 23:35:26 13° E 23:37:44 10° ENE
Cosmos 1271 Rocket 3.2 23:38:07 38° E 23:38:07 38° E 23:41:09 10° NNE
Cosmos 372 Rocket 4.0 23:36:26 10° NNW 23:41:36 76° ENE 23:43:34 38° SE
RESURS DK-1 3.4 23:38:39 10° NNW 23:42:25 40° NE 23:44:13 25° ESE
Cosmos 1937 Rocket 4.2 23:37:49 10° NNW 23:42:49 47° ENE 23:45:41 23° ESE
Cosmos 2360 Rocket 2.9 23:39:08 10° NW 23:44:21 38° WSW 23:45:58 32° SW
ALOS 2 3.0 23:43:55 43° SW 23:44:51 52° W 23:49:10 10° NNW
ARIANE 5 R/B 3.3 23:44:33 37° SW 23:45:31 43° W 23:49:47 10° NNW
Meteor 1-11 Rocket 4.2 23:41:09 10° N 23:46:48 53° ENE 23:49:31 29° SE
Meteor 1-26 Rocket 4.3 23:45:25 34° SSW 23:47:49 68° WNW 23:53:27 10° N
GP-B 3.6 23:43:56 10° N 23:48:12 49° E 23:49:14 40° SE
Cosmos 2058 Rocket 3.2 23:48:52 45° SW 23:50:01 66° WNW 23:54:22 10° N
Cosmos 468 Rocket 4.1 23:51:08 43° SSE 23:52:40 61° ESE 23:57:52 10° NNE
